Location: Brachstadt
(48.6975°N, 10.6755°E)
Time: 02:37:18
(UTC+00:00)

USA 238 - Pass Details

Date: 18 September 2020
Orbit: 1006 x 1206 km, 63.4° (Epoch: 15 October)

Event Time Altitude Azimuth Distance (km) Brightness Sun altitude
Rises 19:32:26 0° 317° (NW) 3,941 8.0 -21.2°
Reaches altitude 10° 19:35:04 10° 316° (NW) 3,008 7.1 -21.6°
Maximum altitude 19:42:15 74° 233° (SW) 1,210 3.9 -22.7°
Enters shadow 19:45:44 34° 157° (SSE) 1,822 4.5 -23.1°
